Temperature
7 8 8 7 7 8 8 8 9 9 8 8 8 8 8 8 8 9 9 10 10 11 11 12 12 13 13 14 14 14 14 14 14 15 15 15 15 16 16 16 16 16 16
7 7 8 7 7 7 7 8 8 8 8 8 7 7 7 7 7 7 8 8 8 9 9 10 10 11 12 12 13 13 14 14 14 15 15 15 15 15 16 16 16 16 16
7 7 7 7 7 7 7 7 7 7 7 7 7 7 7 7 7 6 7 7 7 7 8 8 9 9 10 11 11 12 13 13 14 14 15 14 14 15 15 15 16 16 16
7 7 7 7 7 7 7 7 6 6 6 6 6 5 6 6 5 5 6 6 5 6 6 6 7 8 8 9 10 10 11 12 13 14 14 14 14 14 14 15 15 15 16
7 7 7 7 7 7 6 6 5 5 5 5 5 5 5 5 5 5 5 5 5 5 5 5 5 6 7 7 8 9 10 10 12 12 13 13 14 14 14 14 15 15 15
7 7 7 8 7 6 6 5 5 4 4 4 4 4 5 5 4 4 4 4 4 4 4 4 4 4 5 6 7 7 8 9 10 11 12 12 13 13 13 14 14 15 15
7 7 7 7 7 6 6 5 5 5 4 5 4 4 4 4 4 4 4 4 4 4 4 4 4 4 4 4 5 6 7 8 9 9 10 11 12 12 12 13 13 14 14
7 7 7 7 6 6 5 5 4 4 4 4 4 4 4 4 4 4 4 3 3 3 3 3 3 3 3 4 4 4 5 6 7 8 9 10 10 11 11 12 13 13 14
6 6 6 6 6 5 5 4 4 4 4 4 4 4 4 4 4 3 3 3 3 2 2 3 3 3 3 3 3 4 4 5 6 6 7 8 9 10 10 11 11 12 13
6 6 6 5 5 4 4 4 4 4 4 4 4 4 3 3 3 3 3 3 2 2 2 2 2 2 2 3 3 3 3 4 4 5 6 6 7 8 9 10 10 11 12
5 5 5 5 5 4 3 4 3 3 3 3 3 3 3 3 2 2 2 2 2 2 2 1 1 1 2 2 2 2 2 2 3 4 5 5 6 7 8 9 9 10 11
4 5 5 5 4 3 3 3 3 3 2 2 2 2 2 2 1 1 1 1 1 1 1 1 1 0 0 1 1 1 1 1 1 2 3 4 5 6 7 7 8 9 10
4 4 4 4 3 3 2 2 2 2 2 1 1 1 0 0 0 -0 -0 -0 -1 -1 -1 -1 -1 -1 -1 -1 -1 -1 -1 -1 -0 0 1 3 4 5 5 6 7 8 9
4 4 4 3 2 2 2 1 1 1 0 0 -0 -1 -1 -1 -1 -2 -2 -2 -3 -3 -3 -3 -3 -3 -3 -3 -3 -2 -2 -2 -2 -1 -0 2 3 4 4 5 6 7 8
3 3 3 2 2 1 1 1 0 -0 -0 -1 -1 -2 -2 -3 -3 -3 -4 -4 -5 -5 -6 -5 -5 -5 -5 -5 -5 -4 -4 -3 -3 -2 -2 -0 2 3 4 4 4 5 7
3 3 2 2 1 1 0 0 -0 -1 -1 -1 -2 -3 -3 -4 -5 -5 -6 -6 -7 -7 -7 -8 -8 -7 -7 -7 -6 -6 -5 -4 -4 -3 -3 -2 0 2 2 3 4 4 5
3 2 2 1 1 0 0 -0 -1 -1 -2 -2 -3 -4 -4 -5 -6 -7 -7 -7 -8 -8 -9 -9 -9 -9 -9 -9 -8 -7 -7 -6 -5 -4 -3 -3 -2 -0 1 2 2 3 3
2 2 1 1 0 0 0 -0 -1 -1 -2 -3 -3 -4 -5 -6 -7 -7 -8 -9 -9 -10 -10 -10 -10 -10 -10 -10 -9 -9 -8 -7 -6 -5 -4 -3 -3 -2 -1 -0 0 1 2
2 1 1 1 0 0 -0 -0 -1 -2 -2 -3 -4 -5 -6 -6 -7 -8 -9 -10 -10 -10 -10 -11 -11 -11 -11 -11 -10 -10 -9 -8 -7 -6 -5 -4 -4 -3 -3 -2 -1 -0 1
2 1 1 0 -0 -0 -0 -1 -1 -2 -3 -4 -4 -6 -6 -7 -8 -9 -10 -10 -11 -11 -11 -11 -11 -11 -11 -11 -11 -11 -10 -9 -7 -6 -5 -5 -4 -3 -3 -3 -3 -2 -0
1 1 0 -0 -1 -1 -1 -1 -2 -3 -4 -5 -6 -7 -7 -8 -9 -9 -10 -10 -11 -11 -11 -12 -12 -12 -12 -12 -11 -11 -10 -9 -7 -6 -6 -5 -4 -4 -4 -4 -3 -2 -2
1 1 0 -1 -1 -2 -2 -2 -3 -4 -5 -6 -7 -7 -8 -9 -9 -10 -10 -11 -11 -12 -12 -12 -12 -12 -12 -12 -12 -12 -11 -9 -6 -7 -7 -6 -5 -4 -4 -4 -4 -3 -2
1 1 -0 -1 -1 -2 -2 -3 -4 -5 -6 -7 -7 -8 -8 -9 -10 -10 -11 -11 -11 -12 -12 -12 -12 -12 -12 -12 -12 -12 -12 -10 -10 -9 -7 -6 -6 -5 -5 -4 -4 -3 -3
1 1 -0 -1 -2 -2 -3 -3 -4 -5 -6 -7 -8 -8 -9 -9 -10 -10 -11 -11 -11 -12 -12 -12 -12 -13 -13 -13 -13 -12 -12 -12 -12 -11 -9 -7 -7 -6 -5 -5 -4 -4 -3
1 0 -1 -1 -2 -3 -3 -4 -4 -6 -6 -7 -8 -9 -9 -10 -10 -11 -11 -11 -11 -12 -12 -12 -12 -12 -13 -13 -13 -13 -13 -12 -12 -11 -10 -8 -7 -6 -6 -5 -5 -4 -3
1 -0 -1 -2 -2 -3 -3 -4 -5 -6 -7 -8 -9 -9 -10 -10 -10 -10 -11 -11 -11 -11 -11 -12 -12 -12 -12 -13 -13 -13 -13 -12 -12 -11 -10 -9 -8 -7 -6 -5 -5 -4 -4
Wind_Speed
12 18 22 23 23 24 25 25 26 26 26 27 27 28 28 28 28 29 29 29 29 29 29 29 29 29 29 28 28 28 28 27 27 27 26 22 17 15 15 14 12 11 8
13 16 19 22 22 23 24 25 25 25 26 26 27 27 28 28 28 28 29 29 29 29 29 29 29 29 29 28 28 28 28 28 28 28 27 22 15 13 14 15 14 13 10
13 15 18 21 21 22 23 24 25 25 26 26 27 28 28 28 28 28 28 28 28 28 28 28 29 29 29 29 28 28 28 28 28 28 25 17 16 14 14 16 16 16 15
12 14 17 20 20 21 23 23 24 24 25 25 26 27 27 28 28 28 28 28 28 28 28 28 28 29 29 29 29 28 28 27 28 27 19 18 18 16 17 18 18 17 17
12 13 17 20 20 21 22 22 22 23 24 24 25 26 27 27 28 28 28 28 28 28 28 27 28 28 29 29 28 28 28 28 28 22 18 18 18 18 21 21 19 19 18
12 14 16 20 20 20 21 21 22 22 23 24 25 26 26 27 27 27 28 28 28 28 28 28 28 28 28 28 28 28 28 28 27 19 18 18 17 19 24 24 22 20 19
11 13 15 19 19 19 20 21 21 22 23 24 25 26 26 27 27 27 27 28 28 28 28 28 28 28 28 28 28 28 28 28 24 20 18 18 17 21 24 25 24 22 20
11 12 13 16 17 18 19 21 21 21 22 23 24 25 26 26 26 26 27 27 28 28 28 28 29 28 28 28 27 27 28 27 24 20 18 18 18 22 24 26 26 24 22
10 11 13 14 15 15 16 19 19 19 21 21 22 24 24 24 24 24 25 27 27 28 28 28 29 29 29 28 27 26 27 27 22 17 19 16 18 23 25 26 26 26 24
8 11 13 14 14 14 12 15 16 17 19 20 20 23 23 22 22 23 24 27 27 28 28 28 28 29 28 27 26 26 27 23 17 19 17 16 21 24 26 26 26 26 26
7 10 12 13 13 13 12 12 14 15 17 18 18 21 21 20 20 21 23 26 26 27 27 27 28 28 27 24 24 25 23 16 20 18 17 19 24 26 26 27 26 27 26
8 9 10 12 13 13 11 11 12 13 14 16 17 19 18 18 18 20 22 23 24 25 25 25 27 25 22 20 22 23 17 20 19 17 17 23 26 27 27 27 27 27 27
6 7 9 10 11 12 11 11 11 11 12 13 15 17 17 16 16 17 18 19 21 22 20 22 22 20 21 21 21 20 20 20 17 17 19 25 27 27 27 27 27 27 27
6 7 8 9 10 11 11 10 10 10 11 11 13 15 16 15 15 17 16 18 18 18 20 20 19 21 22 22 22 22 22 19 19 19 20 25 27 28 28 28 28 27 27
5 7 7 7 10 11 10 10 10 11 11 12 12 13 16 15 15 17 17 17 18 18 19 20 20 22 22 21 21 22 22 22 22 22 20 24 27 29 28 28 27 27 27
4 6 7 7 9 11 10 11 10 11 11 12 12 14 16 15 16 17 17 17 18 18 19 20 21 21 19 19 21 22 23 23 22 22 22 23 26 27 27 26 26 26 26
3 4 6 7 9 11 11 11 10 11 12 11 12 13 15 16 17 17 17 17 18 19 21 20 20 19 18 18 19 21 20 22 22 23 23 21 21 22 23 23 23 23 24
2 3 5 7 9 11 11 11 10 11 12 11 12 12 15 17 17 17 16 17 19 20 19 17 16 16 16 17 17 17 18 19 22 23 22 21 19 17 18 20 20 21 22
1 2 4 7 9 11 12 11 10 11 11 11 11 12 16 17 18 18 16 17 19 18 17 16 15 16 17 18 18 18 18 18 19 20 20 19 18 16 15 15 16 19 20
2 1 4 6 9 11 10 10 10 10 11 10 11 13 16 16 18 17 16 18 18 16 14 15 18 17 17 17 18 19 18 19 18 17 16 14 13 14 13 13 13 14 17
3 1 4 6 8 9 8 8 8 10 9 10 11 14 15 16 17 17 16 17 17 15 16 18 17 19 17 16 17 18 19 19 17 13 10 10 11 12 12 13 13 13 13
4 1 3 5 7 8 8 8 8 10 8 10 11 13 14 16 17 16 17 17 17 15 18 18 18 16 17 15 16 17 15 15 8 10 11 11 12 10 11 13 14 14 14
4 1 3 5 6 8 9 8 9 8 7 8 10 11 15 17 17 17 18 18 18 17 16 19 19 20 17 17 14 12 11 11 15 12 14 11 10 11 12 12 13 14 15
4 1 2 4 6 7 8 9 10 9 10 11 10 11 16 16 17 17 18 19 19 17 17 18 18 18 18 16 15 13 13 14 12 11 11 13 15 14 13 12 13 13 14
5 2 2 4 5 6 8 9 10 9 9 10 11 13 14 15 16 17 18 19 19 17 18 19 19 18 15 15 15 14 15 14 15 14 15 14 13 12 12 13 12 12 12
5 2 2 4 5 6 7 8 9 11 12 13 13 13 13 12 14 17 19 19 19 18 18 18 18 18 15 16 14 13 13 12 12 12 14 15 14 14 14 12 12 11 10
Wind_Direction
349 347 349 358 8 12 15 16 16 17 17 16 16 16 16 15 13 12 10 8 7 5 3 2 1 0 359 358 357 355 352 351 350 348 341 330 318 313 311 310 297 276 259
341 347 351 3 10 13 16 17 17 17 17 17 16 16 15 13 12 11 9 7 6 4 2 1 359 357 356 355 354 352 350 349 348 345 337 324 313 310 308 307 301 289 289
356 355 357 9 12 15 16 17 17 17 17 17 16 15 14 12 11 10 8 7 5 3 1 359 357 355 353 352 351 349 348 346 345 341 330 326 324 315 312 307 300 289 279
6 3 4 11 14 16 17 17 18 17 18 17 16 14 13 11 9 8 7 5 3 2 360 358 356 353 351 349 347 346 345 344 343 335 330 331 325 320 319 312 304 294 283
18 13 11 15 16 18 19 18 18 17 17 16 15 13 12 9 7 6 4 2 1 360 358 357 354 351 349 347 344 343 342 342 338 329 331 329 324 323 324 316 308 299 288
27 20 17 18 19 20 20 19 19 18 17 15 13 11 9 7 4 3 2 359 358 357 355 354 352 350 347 344 342 340 340 340 333 329 327 324 321 324 325 321 313 303 290
29 23 21 22 22 21 21 19 18 16 15 12 10 8 6 4 1 360 359 356 355 353 352 351 349 347 345 342 339 337 337 336 329 323 322 318 316 321 322 323 320 311 298
30 24 23 23 23 21 20 18 16 14 12 10 7 4 2 360 358 356 355 353 351 350 348 347 345 343 341 339 336 334 333 331 324 317 317 312 313 319 319 320 321 317 309
33 28 25 22 19 17 16 15 13 12 10 8 5 2 358 356 354 353 352 350 348 347 345 343 341 339 338 335 332 331 330 326 315 314 312 308 313 316 316 315 315 315 314
37 31 25 21 16 9 5 10 8 9 7 4 2 359 355 352 351 350 349 347 345 343 341 339 338 336 334 331 329 328 326 318 314 314 307 305 312 312 311 310 310 310 310
42 34 25 18 12 4 358 358 0 2 3 1 359 356 354 350 348 345 343 341 341 339 337 336 335 333 331 327 326 326 322 317 315 306 302 303 308 308 306 305 305 305 305
37 31 24 16 8 1 355 354 357 359 358 358 355 353 349 346 342 340 337 337 336 335 333 333 332 330 329 326 324 323 318 315 310 303 300 302 304 304 302 301 301 300 298
38 30 23 15 5 1 355 353 355 353 352 351 351 349 344 341 338 337 335 334 333 332 332 330 329 328 325 322 318 316 313 312 306 302 299 299 300 300 299 298 296 294 293
41 29 19 10 4 359 354 350 352 350 347 345 344 346 344 338 335 334 331 330 329 328 326 326 323 321 319 316 313 311 309 307 302 300 295 295 296 296 296 294 291 289 287
44 29 16 1 1 356 350 347 348 347 344 341 341 343 343 337 332 330 326 325 323 322 322 321 318 318 315 313 310 308 306 304 300 296 293 291 292 292 291 290 288 285 283
47 27 10 358 357 351 348 346 344 344 341 339 340 341 341 336 329 326 323 321 320 320 320 316 314 313 311 310 308 306 303 300 296 294 291 290 288 287 287 286 285 283 280
63 24 7 354 351 346 344 343 342 342 341 339 338 337 338 334 330 327 322 320 320 320 317 314 313 311 310 309 307 305 302 298 295 292 290 287 285 282 280 281 281 281 280
90 15 2 350 343 343 342 339 340 340 341 338 336 335 337 336 333 329 323 321 321 319 316 314 313 312 311 309 307 305 302 297 293 290 287 282 279 277 278 276 279 282 281
140 2 351 349 343 340 337 335 337 337 337 336 336 337 338 336 334 330 323 320 321 318 315 313 312 311 309 308 305 303 300 296 292 287 281 277 273 271 273 276 281 282 282
176 342 347 346 343 338 336 336 336 338 337 337 336 337 336 334 332 329 322 321 321 317 315 314 312 309 306 306 305 302 300 295 284 276 274 271 270 271 274 282 287 283 280
195 305 347 343 343 342 341 340 338 336 332 332 333 332 331 331 330 326 322 320 319 315 313 310 309 308 307 307 306 306 304 293 279 272 272 276 276 278 280 284 286 286 285
203 280 337 342 340 342 340 332 326 321 319 322 327 328 329 329 326 323 319 318 316 314 311 310 309 306 304 305 307 308 310 308 286 319 299 284 282 287 287 286 286 285 283
201 256 339 337 333 337 336 330 326 322 323 332 333 329 328 326 322 319 318 317 315 313 309 309 308 303 303 302 296 295 298 301 321 299 293 288 293 298 293 290 286 285 283
181 162 322 327 327 334 336 334 335 332 332 332 329 323 324 323 321 321 320 318 315 313 310 309 306 301 298 296 294 288 280 284 289 297 297 299 298 292 290 290 289 286 281
165 174 300 315 320 332 336 336 333 330 328 325 326 324 326 324 323 323 324 322 320 317 314 311 307 302 296 291 291 290 286 283 272 273 286 294 295 293 291 291 287 283 282
167 190 274 303 316 330 334 335 333 330 328 326 328 327 328 325 324 327 329 326 324 322 318 315 311 305 298 291 288 285 283 281 280 280 285 292 295 296 294 290 284 281 280
Height
1627 1624 1622 1620 1617 1614 1610 1607 1603 1599 1595 1592 1588 1584 1581 1577 1574 1571 1568 1565 1562 1560 1557 1555 1552 1550 1548 1547 1545 1544 1542 1541 1540 1539 1538 1537 1537 1537 1536 1536 1535 1536 1535
1626 1624 1622 1620 1617 1613 1609 1606 1602 1598 1594 1591 1587 1584 1580 1576 1573 1570 1566 1563 1560 1557 1555 1552 1549 1547 1545 1543 1541 1540 1539 1537 1536 1535 1535 1535 1535 1534 1534 1534 1534 1534 1533
1626 1624 1622 1619 1616 1612 1609 1605 1601 1597 1593 1590 1586 1582 1579 1575 1572 1568 1565 1562 1559 1555 1553 1550 1547 1544 1542 1539 1537 1535 1534 1533 1532 1532 1532 1532 1532 1532 1531 1531 1531 1531 1531
1626 1624 1621 1618 1615 1611 1608 1604 1600 1596 1592 1589 1585 1581 1577 1574 1570 1567 1563 1560 1557 1553 1550 1547 1544 1542 1539 1536 1534 1531 1529 1528 1527 1528 1528 1527 1527 1528 1528 1528 1528 1528 1528
1625 1623 1620 1617 1614 1610 1606 1603 1599 1595 1591 1587 1584 1580 1576 1573 1569 1566 1562 1558 1555 1551 1548 1545 1542 1539 1536 1533 1530 1528 1525 1523 1522 1523 1522 1523 1523 1523 1523 1524 1524 1525 1525
1625 1622 1620 1617 1613 1609 1605 1601 1598 1594 1590 1587 1583 1579 1576 1572 1568 1564 1560 1557 1553 1549 1546 1542 1539 1535 1532 1530 1527 1524 1521 1518 1518 1517 1517 1517 1518 1517 1518 1518 1519 1520 1521
1624 1622 1619 1615 1612 1608 1604 1600 1596 1593 1589 1586 1582 1579 1575 1571 1567 1563 1559 1555 1551 1547 1543 1539 1535 1532 1529 1526 1523 1520 1517 1514 1513 1512 1511 1511 1511 1512 1512 1512 1514 1515 1516
1623 1621 1618 1614 1610 1606 1602 1599 1595 1592 1588 1584 1581 1577 1573 1569 1565 1561 1556 1552 1548 1544 1540 1536 1532 1528 1525 1521 1518 1515 1512 1510 1508 1506 1505 1505 1505 1505 1505 1506 1507 1508 1510
1622 1620 1617 1613 1609 1605 1601 1597 1593 1590 1586 1582 1578 1574 1570 1566 1562 1558 1554 1549 1545 1541 1537 1532 1528 1524 1520 1517 1513 1510 1507 1505 1503 1500 1499 1498 1497 1498 1498 1499 1500 1501 1503
1621 1619 1615 1612 1607 1603 1599 1595 1591 1588 1585 1581 1577 1573 1568 1564 1560 1555 1551 1546 1542 1537 1533 1528 1524 1519 1515 1512 1508 1504 1501 1500 1498 1495 1493 1492 1490 1490 1491 1492 1493 1494 1495
1620 1617 1614 1610 1605 1601 1597 1594 1590 1587 1583 1579 1575 1571 1566 1562 1557 1553 1548 1543 1538 1534 1529 1524 1519 1514 1510 1506 1503 1499 1496 1493 1491 1489 1487 1485 1484 1483 1483 1484 1485 1486 1488
1619 1616 1612 1608 1603 1599 1596 1593 1589 1586 1582 1577 1573 1568 1564 1559 1554 1549 1544 1539 1534 1529 1524 1519 1514 1509 1505 1501 1497 1493 1490 1487 1484 1482 1480 1478 1477 1476 1475 1476 1477 1478 1480
1617 1614 1610 1606 1601 1597 1594 1591 1587 1583 1579 1574 1570 1565 1560 1555 1550 1545 1539 1534 1529 1524 1519 1514 1509 1504 1500 1495 1491 1487 1484 1480 1477 1474 1472 1471 1470 1468 1467 1467 1468 1470 1472
1615 1612 1608 1604 1600 1596 1592 1589 1584 1580 1576 1571 1566 1561 1556 1551 1546 1541 1535 1530 1524 1519 1514 1509 1503 1499 1494 1490 1486 1482 1478 1475 1471 1467 1464 1463 1462 1460 1459 1459 1460 1461 1463
1613 1610 1606 1602 1598 1594 1590 1586 1582 1578 1573 1568 1563 1558 1553 1547 1542 1536 1531 1525 1520 1515 1509 1504 1499 1494 1489 1484 1480 1475 1471 1468 1464 1460 1457 1455 1453 1452 1451 1451 1451 1452 1454
1611 1608 1604 1600 1596 1592 1588 1584 1580 1576 1571 1566 1561 1556 1550 1544 1538 1532 1526 1521 1516 1510 1505 1499 1494 1488 1483 1478 1473 1469 1464 1460 1456 1453 1450 1447 1445 1444 1443 1442 1443 1444 1446
1609 1606 1602 1598 1594 1590 1586 1582 1578 1574 1569 1564 1558 1552 1546 1540 1534 1528 1522 1517 1511 1506 1500 1494 1489 1484 1478 1472 1466 1462 1457 1453 1449 1446 1443 1440 1438 1436 1435 1434 1434 1435 1437
1606 1603 1600 1596 1592 1588 1585 1581 1576 1572 1566 1561 1555 1548 1542 1536 1530 1524 1519 1513 1508 1502 1496 1491 1485 1479 1473 1467 1461 1455 1450 1445 1441 1438 1436 1433 1431 1429 1428 1427 1427 1427 1428
1603 1601 1597 1594 1590 1587 1583 1578 1574 1569 1563 1558 1552 1546 1539 1533 1527 1521 1515 1510 1504 1498 1493 1487 1481 1476 1469 1462 1456 1449 1444 1438 1434 1431 1428 1426 1425 1423 1422 1421 1420 1418 1419
1600 1598 1595 1591 1588 1584 1580 1576 1572 1567 1561 1555 1549 1543 1536 1530 1524 1518 1513 1507 1501 1495 1489 1483 1478 1471 1465 1458 1451 1444 1438 1432 1427 1424 1422 1421 1419 1418 1417 1416 1414 1413 1412
1597 1595 1592 1589 1584 1580 1577 1573 1568 1563 1557 1551 1545 1539 1533 1527 1521 1515 1510 1503 1498 1491 1485 1479 1473 1467 1461 1455 1447 1439 1432 1426 1421 1419 1417 1416 1414 1413 1411 1410 1408 1407 1406
1594 1592 1589 1585 1581 1577 1573 1569 1565 1559 1553 1547 1542 1536 1530 1524 1518 1512 1506 1500 1494 1488 1481 1476 1470 1463 1456 1452 1446 1437 1428 1423 1416 1414 1412 1411 1410 1408 1406 1404 1403 1401 1400
1591 1589 1586 1582 1578 1574 1571 1566 1561 1556 1551 1546 1539 1533 1527 1521 1515 1509 1503 1497 1491 1485 1478 1471 1465 1459 1452 1447 1443 1438 1431 1422 1417 1411 1409 1407 1405 1403 1401 1399 1397 1395 1394
1587 1585 1582 1579 1575 1571 1568 1563 1558 1553 1548 1542 1536 1530 1524 1518 1512 1506 1500 1494 1488 1481 1474 1467 1461 1454 1448 1441 1437 1433 1430 1424 1420 1411 1407 1404 1401 1398 1396 1393 1391 1389 1388
1583 1581 1579 1576 1572 1569 1565 1560 1555 1550 1545 1539 1533 1527 1521 1515 1510 1504 1498 1491 1485 1478 1471 1463 1456 1449 1443 1437 1432 1428 1424 1421 1417 1412 1404 1400 1396 1393 1391 1388 1386 1384 1382
1579 1578 1575 1572 1569 1566 1562 1558 1553 1547 1542 1536 1530 1524 1518 1512 1507 1501 1495 1488 1482 1475 1468 1460 1452 1445 1438 1433 1428 1423 1420 1416 1412 1408 1403 1397 1393 1389 1386 1383 1381 1379 1377